CZ-6A DEB, 54451

Orbit data source: Space-Track

CZ-6A DEB, 54451 is space debris in SSO originally from a launch on Fri, 11 Nov 2022 UTC launched from the Taiyaun Space Center, China (TSC). Debris objects in space refer to the collection of defunct objects orbiting the Earth. Examples of debris include non-operational satellites, rocket bodies, and fragments generated from explosions, collisions, or faulty payload assembly.

Loading next visibility...
Identifier
54451, 2022-151GB
Orbit
SSO
Country
Flag of CNCN / PRC
Related business
Manufacturer
SAST
Mission
Spacecraft
Bus & Motor
Unknown
Mass
Unknown
Launch date (UTC)
2022-11-11 (4 years ago)
Launch vehicle
Unknown
Launch site
Taiyaun Space Center, China (TSC)
Object type
Payload
Rocket body
Debris
Shape & HBR
Unknown shape, 0.1 m
Radar Cross Section
Medium (>0.1 m² and <1 m²)

Expand to show TLE details & history
Last TLE update: 16 hours ago

TLE from 16 hours ago
0 CZ-6A DEB
1 54451U 22151GB  26207.15193321  .00002162  00000-0  76477-3 0  9997
2 54451  98.9090 269.3736 0071908  14.3985 345.9226 14.34229829192778
Epoch: 2026-07-26T03:38Z
TLE epoch observation values (Epoch: 2026-07-26T03:38:47.029Z)
Latitude
0.00003°
Longitude
-89.17633°
Altitude
730.656 km
Speed
7.516 km/s
True Right ascension
17h 57m 29s
True Declination
0° 00' 00"
Sunlit
Object was in full shadow at epoch
Visualization orbit readout
Latitude
Unknown
Longitude
Unknown
Altitude
Unknown
Speed
Unknown
Apparent Right ascension
Unknown
Apparent Declination
Unknown
Sunlit
N/A
Visualization observer readout
Local Sidereal Time
09:22:44
Azimuth
Unknown
Elevation
Unknown
Doppler factor
Unknown
Orbital elements
Apogee altitude
826.211 km
Perigee altitude
723.341 km
Semi-major axis
7,152.913 km
Eccentricity
0.00719
Inclination
98.909°
RAAN
269.3736°
Arg. of periapsis
14.3985°
True anomaly
345.72041°
Mean anomaly
345.9226°
Eccentric anomaly
345.82168°
Mean motion
3.58772 °/min
Orbital period
100.34 mins
BSTAR
0.00076477
Loading maneuver chart data...
Computing Atmospheric mass density...
Loading historical data...
Loading historical data...
Loading historical data...
Loading historical data...
Loading historical data...
Loading historical data...
Loading historical data...

Documentation

Showing up to 5 results
|